Pagrindinis puslapis
METAR-TAF:

METAR-TAF

Oro uostai :

Big Spring McMahon-Wrinkle Airport

Big Spring, Teksasas, Jungtinės Amerikos Valstijos

platuma: 32-12N, ilguma: 101-31W, Aukštis: 784 m

Dabartinis oras

Ataskaita buvo paskelbta 33 minutes, ne 08:55 UTC
Vėjas 6 kt iš Rytų/Pietryčių
Temperatūra 19°C
Drėgmė 37%
Slėgis 1020 hPa
Matomumas: 16.1 km
Giedras dangus

METAR: KBPG 020855Z AUTO 12006KT 10SM CLR 19/04 A3012 RMK AO2 T01880039

Laikas: 04:28 (09:28 UTC)


TAF: trūkstamas

Orai ataskaitas ir orų prognozės (METAR, TAF).

turimą stotys yra geltonos ir raudonos taškus žemėlapyje.

Perkelti pele per norėdami pamatyti stoties vardą.

Tada spustelėkite, norėdami matyti oro stebėjimo ir prognozės.

Norėdami pakeisti žemėlapį: spustelėkite ant žalios mygtukų su juodo kryžiaus žemyn,; žalią mygtuką su brūkšneliu, jei norite nutolinti; arba žalių rodyklių gretimoms žemėlapius.


METAR-TAF: